This is the latest recevied weather packets stored in our database for station/object DH1FR-13. If no packets are shown the sender has not sent any weather packets the latest 10 day(s).
| Time | Temp. | Humidity | Pressure | Rain* | Wind** | Luminosity | Snow |
|---|---|---|---|---|---|---|---|
| 1787595001 | 18.89° C | 59% | 1020.9 hPa | 0 mm | 0 m/s | - | - |
| 1787594401 | 18.89° C | 58% | 1020.8 hPa | 0 mm | 0 m/s | - | - |
| 1787593801 | 19.44° C | 57% | 1020.7 hPa | 0 mm | 0 m/s | - | - |
| 1787593201 | 19.44° C | 56% | 1021 hPa | 0 mm | 0 m/s | - | - |
| 1787592600 | 20° C | 55% | 1021 hPa | 0 mm | 0 m/s | - | - |
| 1787592001 | 20° C | 53% | 1020.9 hPa | 0 mm | 0 m/s | - | - |
| 1787591400 | 20.56° C | 51% | 1021.1 hPa | 0 mm | 0 m/s | - | - |
| 1787590800 | 20.56° C | 51% | 1021.2 hPa | 0 mm | 0 m/s | - | - |
| 1787590200 | 21.11° C | 50% | 1021.4 hPa | 0 mm | 0 m/s | - | - |
| 1787589601 | 21.11° C | 50% | 1021.5 hPa | 0 mm | 0 m/s | - | - |
| 1787589001 | 21.11° C | 49% | 1021.4 hPa | 0 mm | 0 m/s | - | - |
| 1787588400 | 21.67° C | 48% | 1021.5 hPa | 0 mm | 0 m/s | - | - |
| 1787587800 | 21.11° C | 46% | 1021.9 hPa | 0 mm | 0 m/s | - | - |
| 1787587200 | 21.11° C | 46% | 1021.9 hPa | 0 mm | 0 m/s | - | - |
| 1787586601 | 21.11° C | 46% | 1022 hPa | 0 mm | 0 m/s | - | - |
| 1787586000 | 22.22° C | 44% | 1022.1 hPa | 0 mm | 0 m/s | - | - |
| 1787585401 | 22.22° C | 45% | 1022.3 hPa | 0 mm | 0 m/s | - | - |
| 1787584801 | 21.67° C | 45% | 1022.4 hPa | 0 mm | 0 m/s | - | - |
| 1787584200 | 21.67° C | 45% | 1022.5 hPa | 0 mm | 0 m/s | - | - |
| 1787583600 | 21.67° C | 45% | 1022.4 hPa | 0 mm | 0 m/s | - | - |
| 1787583000 | 21.67° C | 45% | 1022.7 hPa | 0 mm | 0 m/s | - | - |
| 1787582401 | 22.22° C | 45% | 1022.7 hPa | 0 mm | 0 m/s | - | - |
| 1787581801 | 22.78° C | 44% | 1023.1 hPa | 0 mm | 0 m/s | - | - |
| 1787581201 | 21.67° C | 45% | 1023.1 hPa | 0 mm | 0 m/s | - | - |
| 1787580601 | 22.22° C | 46% | 1023.1 hPa | 0 mm | 0 m/s | - | - |
* Rain latest hour (hover to see other rain measurements)
** Current wind speed in m/s (hover to see current wind gust speed)